Theta_e
343 353 365 359 358 357 360 361 362 362 362 361 360 360 360 360 360 359 359 359 360 359 357 356 356 355 354 351 350 350 351 351 350 349 348 345 342 341 341 342 341 338 342
349 355 363 361 358 357 359 361 361 361 361 361 360 359 360 360 359 358 359 358 358 358 358 356 356 356 355 354 352 350 350 349 348 347 345 344 343 341 341 342 342 341 343
353 355 359 362 359 358 357 360 361 360 360 360 360 359 359 359 359 359 359 358 358 357 357 357 356 355 355 354 353 352 350 349 348 349 346 340 340 343 343 343 343 344 343
356 357 358 362 361 358 356 358 360 361 360 360 360 358 358 358 358 359 359 358 358 357 357 356 356 354 353 352 352 352 352 351 350 350 350 346 340 344 344 344 343 343 343
353 356 358 361 361 358 356 357 359 360 360 360 359 357 357 358 358 359 359 359 358 356 356 356 356 355 355 354 353 353 352 354 354 354 352 351 349 343 346 345 344 344 343
352 355 360 361 360 360 357 357 357 358 359 358 357 357 357 356 356 358 358 358 358 358 357 356 356 356 355 355 355 355 355 354 354 350 348 346 348 349 348 347 346 345 343
354 355 357 362 362 361 358 358 358 357 357 358 358 357 356 356 355 356 357 358 358 358 359 358 358 358 358 357 356 355 355 354 352 348 347 348 342 348 351 350 348 345 344
351 352 353 360 362 361 360 359 359 357 357 357 358 358 357 357 356 355 355 355 356 356 356 357 359 359 358 358 356 357 355 355 352 349 350 348 344 347 352 352 350 348 346
347 346 345 348 354 359 360 360 359 358 358 358 357 356 356 356 356 356 355 356 356 357 357 358 358 358 358 358 357 357 356 355 351 351 350 349 349 348 352 354 351 349 347
338 338 339 342 343 349 351 358 359 359 359 358 357 357 356 356 356 356 354 353 355 357 357 357 357 357 357 356 356 357 356 347 340 342 341 346 351 352 351 355 353 353 349
334 332 335 337 342 344 347 350 352 354 357 357 356 356 355 350 348 349 350 353 355 357 358 358 357 357 356 356 356 356 353 341 337 339 345 349 352 353 354 356 356 355 352
329 329 333 339 343 341 340 343 344 345 345 347 348 348 347 346 345 348 349 351 352 354 356 357 357 356 356 353 351 345 340 338 337 339 341 346 353 353 355 358 355 357 354
329 329 330 335 337 332 336 337 338 340 342 344 346 346 344 343 344 346 344 345 337 347 348 352 352 352 351 347 342 339 339 338 338 338 336 342 345 351 357 359 358 357 356
325 327 330 334 338 333 333 335 336 338 340 335 339 344 344 343 340 335 332 331 331 333 342 346 346 347 345 339 335 335 337 337 335 335 336 341 345 348 349 355 358 357 357
330 330 330 331 331 333 331 331 329 329 331 332 333 334 334 331 330 328 329 324 324 326 334 341 342 342 340 336 336 336 334 333 335 335 335 339 345 346 347 351 356 356 356
331 330 329 327 328 327 325 325 326 326 328 326 327 327 328 327 325 326 324 320 322 324 326 328 333 334 333 331 332 331 331 332 331 332 332 333 340 346 346 350 357 358 356
329 328 326 327 325 324 324 324 324 325 324 324 324 325 325 324 322 323 321 319 322 324 322 322 321 323 322 321 322 323 324 323 327 329 332 334 335 343 348 352 354 356 355
325 324 325 328 324 322 322 322 323 323 323 323 324 325 327 327 326 325 323 324 324 324 323 322 322 322 321 320 320 321 321 321 324 333 337 338 342 341 345 352 354 355 352
323 323 323 323 322 321 321 320 319 321 321 323 323 324 326 326 326 325 325 325 325 323 322 321 321 321 320 321 321 322 321 320 321 335 335 334 336 339 339 345 347 349 351
323 322 322 322 321 320 319 318 318 318 320 321 322 323 325 325 326 325 325 325 325 323 321 320 320 322 321 320 320 319 320 318 325 333 330 330 332 333 335 337 338 342 346
322 321 320 320 320 318 317 314 312 311 314 316 320 323 323 323 324 323 324 324 325 323 322 321 320 317 317 322 317 320 318 319 324 325 330 328 328 330 332 334 335 337 341
320 321 321 320 320 318 315 314 313 312 313 316 319 321 322 323 323 323 322 322 323 323 322 319 316 314 314 320 316 313 311 316 318 323 326 326 326 328 329 331 333 337 338
319 320 321 320 319 319 314 313 311 311 311 310 312 314 317 321 323 323 322 320 320 320 318 318 318 315 309 312 319 317 311 309 313 316 323 324 320 322 325 328 331 334 334
319 320 320 319 317 315 315 313 310 307 305 306 307 310 311 314 318 321 322 321 319 319 319 319 321 319 315 312 316 320 319 316 311 311 315 324 323 322 323 326 328 330 332
307 309 314 313 311 309 309 309 308 308 308 309 309 309 311 312 312 314 316 317 319 318 318 318 319 319 317 315 315 316 315 315 314 311 309 315 321 322 323 323 325 327 328
304 303 303 304 304 305 306 307 306 306 305 305 305 305 307 308 310 311 312 314 316 316 317 317 317 317 317 316 317 317 314 313 310 309 309 310 311 318 320 321 323 325 327
Wind_Speed
2 3 6 9 9 9 12 16 15 14 14 14 13 13 12 12 12 12 12 12 11 12 13 13 12 13 13 13 13 12 12 11 12 11 10 10 9 9 9 9 10 9 12
4 3 6 7 9 11 11 13 14 14 12 11 11 11 10 10 11 11 11 11 10 10 10 10 10 10 10 10 10 9 9 9 10 10 9 8 8 7 7 8 9 9 11
6 2 6 7 8 8 9 10 11 11 11 11 10 9 9 9 9 9 9 8 8 8 8 8 8 7 7 7 7 6 5 5 6 6 6 4 4 6 5 6 7 8 11
5 4 5 8 9 8 7 7 8 9 9 9 9 9 8 7 8 7 6 6 5 4 5 5 5 5 4 3 3 3 2 2 2 3 1 3 3 7 7 6 6 6 7
6 5 6 10 9 9 8 6 5 6 7 7 8 7 7 6 6 6 4 3 3 1 2 2 1 0 1 1 1 1 2 4 4 4 4 4 5 8 10 9 8 8 7
3 4 8 8 8 9 8 6 5 4 3 3 4 5 5 5 4 4 2 0 1 3 2 2 3 3 4 4 3 3 3 4 6 5 5 6 7 10 13 13 11 10 9
1 3 4 6 7 8 8 8 8 7 6 5 5 4 4 3 3 3 2 4 4 4 4 4 5 6 6 6 6 5 4 6 5 5 6 6 6 11 16 16 15 12 11
5 7 7 4 2 3 5 8 9 9 8 7 6 6 5 5 4 4 5 6 7 6 6 8 8 8 7 7 8 7 7 8 7 6 8 6 7 8 18 15 14 14 14
4 5 5 5 8 7 5 3 2 2 2 2 4 4 5 5 6 5 6 7 8 7 9 10 10 10 9 9 9 8 9 9 7 6 8 6 9 9 14 14 15 15 14
6 6 6 6 5 4 4 7 4 3 3 4 6 6 6 6 6 5 6 8 10 10 11 11 12 12 10 9 9 8 9 6 5 7 6 7 10 10 14 16 16 14 14
4 6 6 6 5 4 2 4 6 8 8 7 4 6 5 2 4 7 8 10 11 12 13 14 13 12 10 9 9 8 7 3 5 5 4 8 10 10 12 15 16 15 14
3 5 5 4 5 6 5 5 4 4 3 3 3 3 3 3 4 5 10 12 11 14 14 15 13 11 9 3 3 5 2 4 5 5 5 10 10 13 12 13 15 14 13
3 3 5 5 5 5 4 3 2 2 2 3 4 3 3 2 3 2 3 4 4 7 4 4 5 3 4 2 3 3 4 4 4 4 8 13 12 12 11 14 15 16 14
3 5 6 6 4 5 3 3 2 2 1 3 3 4 2 2 3 3 2 3 2 3 3 2 2 3 3 2 3 4 4 5 3 3 6 16 13 11 9 7 12 15 16
6 5 6 5 5 4 4 2 1 3 3 3 5 5 3 4 3 2 2 3 3 4 3 3 2 2 3 4 4 4 5 6 6 4 4 14 13 8 7 6 8 11 14
4 4 2 4 3 4 4 5 3 3 3 4 3 3 4 2 3 4 4 4 4 3 3 3 3 2 2 3 4 5 5 5 5 6 5 5 10 8 7 7 10 12 12
3 2 1 2 4 6 5 3 3 3 4 4 3 4 5 4 4 4 4 4 4 4 5 5 4 3 3 3 3 4 4 5 4 6 5 3 3 5 7 7 10 12 9
5 4 1 2 4 3 2 2 2 3 3 3 3 3 5 5 5 4 4 3 4 4 5 5 4 4 3 3 3 4 4 4 6 5 5 3 3 3 6 6 4 4 2
5 4 2 1 2 3 4 4 4 4 3 3 3 2 3 4 4 4 3 3 4 4 4 5 5 3 4 4 4 3 3 3 4 4 5 6 7 6 5 13 16 13 9
5 3 3 1 2 2 3 3 3 2 1 0 1 0 2 2 2 3 2 2 2 3 3 4 6 7 4 5 6 5 4 3 2 4 5 6 7 8 7 8 6 6 11
4 3 3 3 4 1 2 3 3 3 3 2 3 3 3 4 4 4 3 3 2 2 3 5 2 8 9 7 5 4 3 3 4 5 5 5 8 7 8 7 5 4 5
3 3 5 6 6 5 3 2 2 2 2 3 3 4 5 5 5 4 4 4 5 3 4 4 2 3 6 5 6 4 3 3 2 5 5 5 7 6 7 8 8 7 6
5 6 7 7 7 6 5 4 4 3 3 4 4 4 4 6 5 6 6 5 5 4 4 4 4 7 5 6 3 3 3 2 2 2 6 5 7 5 5 5 6 7 7
8 5 7 7 6 5 6 4 3 2 3 3 4 4 8 6 8 8 7 5 5 3 4 4 5 4 6 8 2 6 4 3 3 2 2 3 4 4 5 3 4 6 7
4 5 3 4 5 5 5 3 3 4 3 3 5 6 7 7 6 8 7 7 7 5 6 7 7 9 8 7 7 4 3 3 3 3 3 3 1 3 3 3 3 4 7
5 5 5 5 3 4 4 4 4 6 8 7 7 8 8 7 8 7 8 7 9 6 6 5 5 6 8 10 7 9 4 4 4 3 4 3 1 2 2 3 2 3 5
Wind_Direction
26 111 131 133 127 122 118 111 108 106 108 114 115 117 116 113 110 105 97 91 86 84 84 87 87 88 87 89 93 95 94 89 87 83 95 82 89 96 100 104 106 106 103
120 111 144 136 137 131 128 121 118 119 119 115 114 112 108 107 106 103 102 101 97 94 92 91 90 90 92 96 96 99 102 103 99 92 84 80 95 101 113 118 118 116 111
84 98 135 130 132 127 133 129 125 125 123 121 118 115 112 107 102 101 102 106 107 108 107 106 103 102 107 111 114 114 109 105 107 100 94 116 126 125 129 130 130 127 125
111 117 134 135 129 131 133 132 132 131 131 128 125 123 116 108 107 102 99 100 99 104 110 106 109 119 117 109 109 115 135 174 217 256 257 201 192 163 159 158 152 145 138
129 150 155 147 141 145 146 138 135 135 130 125 122 118 112 104 91 89 90 96 100 97 60 60 62 64 155 185 226 256 286 300 292 285 259 236 220 196 181 178 174 167 159
131 141 139 141 139 139 145 138 130 113 110 118 115 114 109 103 94 90 106 155 219 229 196 208 270 287 297 276 253 259 276 283 292 289 282 277 260 223 194 187 187 184 178
121 103 100 133 142 150 155 157 155 157 162 170 171 162 146 143 153 165 201 238 252 275 301 287 268 258 258 267 279 274 266 269 269 255 269 279 278 232 206 197 191 188 190
60 32 17 32 100 162 177 179 175 174 174 181 186 188 192 197 208 215 232 250 256 257 254 252 252 262 258 270 272 269 275 281 282 264 270 260 262 235 212 203 199 202 196
40 58 78 26 358 11 1 344 333 308 289 219 217 226 223 224 226 236 255 260 264 258 253 256 255 252 256 257 265 275 283 293 287 264 265 265 253 232 222 213 208 204 199
43 32 29 33 17 8 8 348 353 339 320 315 313 296 285 277 279 269 265 273 276 269 265 264 260 260 260 259 262 268 286 317 315 306 286 277 267 247 223 221 220 219 211
41 21 32 8 2 23 350 7 26 356 351 336 317 313 309 311 308 297 271 268 273 272 266 260 258 261 265 268 276 282 284 286 307 302 300 282 272 262 257 232 216 214 211
73 29 30 24 47 67 60 37 30 12 353 321 314 294 285 297 282 287 293 289 288 285 270 263 261 257 262 262 286 312 287 296 294 290 278 293 271 262 250 240 227 217 209
94 74 24 40 83 87 71 26 15 353 348 326 312 279 257 282 280 286 316 316 312 309 298 293 283 268 265 300 317 315 299 295 278 277 280 282 286 267 250 238 211 215 207
80 32 30 28 95 80 79 43 340 6 346 348 336 344 1 328 328 347 318 269 339 337 317 319 287 290 286 298 300 288 289 283 270 277 279 290 286 271 269 265 196 201 210
52 42 32 24 50 95 108 142 67 37 48 48 44 28 31 0 328 314 324 360 3 339 346 348 341 327 315 314 316 307 308 295 291 284 277 290 289 275 272 252 210 199 205
90 69 44 57 60 86 101 87 83 79 86 71 66 45 52 14 357 330 350 346 352 359 0 26 24 14 5 357 331 320 304 292 286 280 281 292 298 302 269 240 223 224 204
163 153 60 55 53 61 69 77 79 84 86 87 88 74 84 68 50 25 16 7 359 2 7 12 14 21 23 1 340 319 308 309 306 307 302 314 322 323 330 265 237 219 205
174 176 244 41 63 45 30 27 35 48 79 112 114 111 110 101 101 99 106 60 17 29 20 18 7 347 349 346 324 317 319 325 322 327 333 10 38 40 24 12 318 250 218
198 185 207 327 15 1 11 7 357 3 46 26 10 31 96 104 108 103 88 92 104 82 51 24 6 4 328 327 317 313 319 318 318 349 14 34 48 55 65 60 60 58 61
216 219 249 284 309 336 334 311 294 308 286 177 280 339 42 21 54 92 90 70 62 88 85 57 21 4 355 314 315 315 330 337 10 14 24 20 44 52 52 58 54 51 60
239 235 266 276 255 281 284 259 264 257 286 309 298 274 232 219 212 210 206 190 181 222 198 142 80 0 343 355 312 324 321 8 49 21 22 21 15 42 51 50 56 55 58
335 283 276 271 266 254 238 260 264 269 288 277 271 267 259 244 232 230 220 229 220 211 225 244 152 181 298 334 323 303 318 337 21 39 22 32 28 17 43 50 65 61 61
263 250 254 261 267 273 346 335 335 315 336 337 343 320 309 291 243 221 223 225 231 206 224 211 173 174 232 280 235 249 311 324 314 44 32 55 32 1 39 40 56 60 62
254 273 268 288 312 347 348 346 355 265 282 249 262 268 296 287 292 295 278 256 236 226 233 222 184 185 178 232 186 243 204 180 259 336 43 32 54 348 7 8 42 62 67
326 316 321 348 1 341 348 335 309 306 258 268 291 299 295 288 256 262 263 272 263 228 228 227 219 200 196 212 214 222 201 52 17 246 279 276 195 34 344 351 34 66 74
20 33 28 44 28 8 7 352 334 311 305 315 314 315 309 309 307 295 277 259 251 237 218 215 237 219 226 210 197 216 179 178 167 186 220 207 215 167 55 354 26 70 81